Location: *
(33.8649°S, 62.1526°E)
Time: 04:37:25
(UTC+00:00)

Meteor 2-3 Rocket - Pass Details

Date: 17 January 2021
Orbit: 842 x 885 km, 81.2° (Epoch: 27 February)

Event Time Altitude Azimuth Distance (km) Brightness Sun altitude
Rises 16:50:00 0° 184° (S) 3,517 7.6 -19.0°
Reaches altitude 10° 16:52:31 10° 179° (S) 2,573 6.8 -19.3°
Maximum altitude 16:58:18 58° 100° (E) 1,034 3.9 -20.2°
Enters shadow 17:00:17 39° 42° (NE) 1,310 4.2 -20.5°
